Location: Caserta
(41.0670°N, 14.3330°E)
Time: 00:21:44
(UTC+00:00)

ISS - Visible Passes

Search period start: 22 September 2019 00:00
Search period end: 02 October 2019 00:00
Orbit: 411 x 421 km, 51.6° (Epoch: 22 September)

Date Brightness Start Highest point End Pass type
(mag) Time Alt. Az. Time Alt. Az. Time Alt. Az.
22 Sep -3.6 17:46:59 10° WSW 17:50:17 73° NW 17:53:36 10° NE visible
22 Sep -1.0 19:25:04 10° WNW 19:26:55 17° NNW 19:26:55 17° NNW visible
23 Sep -1.6 18:36:05 10° WNW 18:38:47 23° NNW 18:40:31 16° NNE visible
24 Sep -2.1 17:47:09 10° W 17:50:09 31° NNW 17:53:11 10° NE visible
24 Sep -0.7 19:25:49 10° NW 19:26:54 13° NNW 19:26:54 13° NNW visible
25 Sep -1.2 18:36:48 10° NW 18:38:54 16° NNW 18:40:18 13° NNE visible
26 Sep -1.4 17:47:43 10° WNW 17:50:10 19° NNW 17:52:37 10° NNE visible
26 Sep -0.6 19:26:08 10° NNW 19:26:33 11° NNW 19:26:33 11° NNW visible
27 Sep -1.2 18:37:21 10° NNW 18:39:05 13° N 18:39:51 13° NNE visible
28 Sep -1.2 17:48:23 10° NW 17:50:16 14° N 17:52:09 10° NNE visible
28 Sep -0.5 19:25:47 10° NNW 19:26:00 11° NNW 19:26:00 11° NNW visible
29 Sep -1.3 18:37:17 10° NNW 18:39:13 14° N 18:39:15 14° N visible
30 Sep -1.2 17:48:38 10° NNW 17:50:23 13° N 17:52:08 10° NE visible
30 Sep -0.5 19:25:09 10° NW 19:25:23 11° NNW 19:25:23 11° NNW visible
01 Oct -1.6 18:36:43 10° NNW 18:38:38 19° N 18:38:38 19° N visible
